Location: Newark
(25.4297°S, 49.2719°W)
Time: 11:31:26
(UTC+00:00)

Vanguard 1 Rocket - Pass Details

Date: 24 November 2019
Orbit: 650 x 4226 km, 34.3° (Epoch: 10 December)

Event Time Altitude Azimuth Distance (km) Brightness Sun altitude
Rises 23:54:32 0° 246° (WSW) 8,420 13.5 -25.1°
Reaches altitude 10° 00:01:04 10° 250° (WSW) 7,176 12.8 -26.2°
Maximum altitude 00:21:57 47° 315° (NW) 3,446 10.2 -29.6°
Enters shadow 00:27:46 35° 1° (N) 3,371 9.8 -30.5°
Drops below altitude 10° 00:33:46 10° 25° (NNE) 4,224 - -31.5°
Sets 00:36:33 0° 32° (NNE) 4,849 - -31.9°
